Overview Statistics Trail Chart Weather Telemetry Raw packets
 

This is the latest recevied weather packets stored in our database for station/object N9BLE. If no packets are shown the sender has not sent any weather packets the latest 10 day(s).

<< 12 13 14 15 16 17 18 >>
Time Temp. Humidity Pressure Rain* Wind** Luminosity Snow
1777953583 15° C 49% 1005.9 hPa 0 mm - 0 W/m² -
1777953279 15° C 50% 1005.8 hPa 0 mm - 0 W/m² -
1777952976 15.56° C 49% 1005.7 hPa 0 mm - 0 W/m² -
1777952672 15.56° C 48% 1005.5 hPa 0 mm - 0 W/m² -
1777952370 16.11° C 48% 1005.7 hPa 0 mm - 0 W/m² -
1777952066 16.67° C 48% 1005.4 hPa 0 mm - 0 W/m² -
1777951765 16.67° C 46% 1005.4 hPa 0 mm - 0 W/m² -
1777951461 16.67° C 46% 1005.3 hPa 0 mm - 0 W/m² -
1777951158 17.22° C 45% 1005.2 hPa 0 mm - 0 W/m² -
1777950855 17.22° C 47% 1005.2 hPa 0 mm - 0 W/m² -
1777950552 17.22° C 48% 1005.2 hPa 0 mm - 0 W/m² -
1777950248 17.22° C 50% 1005.2 hPa 0 mm - 0 W/m² -
1777949943 17.22° C 53% 1005.1 hPa 0 mm - 0 W/m² -
1777949641 17.78° C 55% 1005.2 hPa 0 mm - 0 W/m² -
1777949340 17.78° C 60% 1005.2 hPa 0 mm - 0 W/m² -
1777949037 17.78° C 63% 1005.1 hPa 0 mm - 0 W/m² -
1777948734 17.78° C 65% 1005.3 hPa 0 mm - 0 W/m² -
1777948431 17.22° C 66% 1005 hPa 0 mm - 0 W/m² -
1777948128 17.22° C 67% 1004.8 hPa 0 mm - 0 W/m² -
1777947825 17.22° C 68% 1004.7 hPa 0 mm - 0 W/m² -
1777947522 16.67° C 69% 1004.6 hPa 0 mm - 0 W/m² -
1777947218 16.11° C 73% 1004.5 hPa 0 mm - 0 W/m² -
1777946914 16.11° C 74% 1004.3 hPa 0 mm - 0 W/m² -
1777946610 16.11° C 75% 1003.9 hPa 0 mm - 0 W/m² -
1777946307 16.11° C 76% 1003.9 hPa 0 mm - 0 W/m² -

* Rain latest hour (hover to see other rain measurements)
** Current wind speed in m/s (hover to see current wind gust speed)